Location: Dal�� Lhota
(48.7500°N, 14.0167°E)
Time: 00:52:08
(UTC+00:00)

ISS - Pass Details

Date: 01 July 2021
Orbit: 419 x 421 km, 51.6° (Epoch: 02 August)

Event Time Altitude Azimuth Distance (km) Brightness Sun altitude
Exits shadow 02:19:19 - 232° (SW) 1,629 -1.4 -6.4°
Reaches altitude 10° 02:19:38 10° 231° (SW) 1,498 -1.6 -6.4°
Maximum altitude 02:22:57 57° 152° (SSE) 499 -3.5 -6.0°
Drops below altitude 10° 02:26:16 10° 73° (ENE) 1,504 0.2 -5.6°
Sets 02:28:23 0° 69° (ENE) 2,370 1.5 -5.4°
